Dutch Harbor, AK

5:55 AM AKST on February 12, 2016 (GMT -0900)
Unalaska

Weather History for PADU - November, 2012

Change the Weather History Date:

Tuesday, November 13, 2012

  Actual Average Record
Temperature  
Mean Temperature 45 °F -  
Max Temperature 48 °F 44 °F 53 °F (1990)
Min Temperature 42 °F 31 °F 13 °F (1991)
Degree Days  
Heating Degree Days 20    
Moisture  
Dew Point 35 °F    
Average Humidity 69    
Maximum Humidity 82    
Minimum Humidity 60    
Precipitation  
Precipitation 0.16 in - - ()
Sea Level Pressure  
Sea Level Pressure 29.20 in    
Wind  
Wind Speed 14 mph (SSW)    
Max Wind Speed 31 mph    
Max Gust Speed 48 mph    
Visibility 10 miles    
Events Rain    
Averages and records for this station are not official NWS values.
T = Trace of Precipitation, MM = Missing Value Source: NWS Daily Summary

Daily Weather History Graph

Daily Weather History Graph

Search for Another Location

Airport or City:

Trip Planner

Search our weather history database for the weather conditions in past years. The results will help you decide how hot, cold, wet, or windy it might be!

Date:

Astronomy

Nov. 13, 2012 Rise Set
Actual Time 9:31 AM AKST 6:09 PM AKST
Civil Twilight 8:51 AM AKST 6:48 PM AKST
Nautical Twilight 8:08 AM AKST 7:31 PM AKST
Astronomical Twilight 7:27 AM AKST 8:13 PM AKST
Moon 9:28 AM AKST (11/13) 6:07 PM AKST (11/13)
Length of Visible Light 9h 56m
Length of Day
8h 38m
Waning Crescent, 0% of the Moon is Illuminated
Nov 13
Waning Crescent
Nov 13
New
Nov 20
First Quarter
Nov 28
Full
Dec 6
Last Quarter

Hourly Weather History & Observations

Time (AKST) Temp. Windchill Dew Point Humidity Pressure Visibility Wind Dir Wind Speed Gust Speed Precip Events Conditions
12:56 AM 48.9 °F - 43.0 °F 80% 29.31 in 10.0 mi SSE 9.2 mph 19.6 mph 0.03 in Rain Light Rain
1:31 AM 48.2 °F - 42.8 °F 82% 29.29 in 10.0 mi South 9.2 mph - 0.02 in Rain Light Rain
1:56 AM 48.9 °F - 42.1 °F 77% 29.31 in 10.0 mi SSE 8.1 mph - 0.02 in   Overcast
2:51 AM 48.2 °F - 37.4 °F 66% 29.30 in 10.0 mi South 12.7 mph 23.0 mph N/A   Mostly Cloudy
2:56 AM 46.9 °F - 37.0 °F 68% 29.32 in 10.0 mi South 11.5 mph - N/A   Mostly Cloudy
3:56 AM 46.9 °F - 35.1 °F 63% 29.31 in 10.0 mi SSW 11.5 mph - N/A   Overcast
4:56 AM 46.0 °F 40.6 °F 34.0 °F 63% 29.30 in 10.0 mi SSW 11.5 mph 20.7 mph N/A   Overcast
5:56 AM 44.1 °F 37.7 °F 35.1 °F 71% 29.29 in 10.0 mi South 12.7 mph 20.7 mph 0.00 in Rain Light Rain
6:56 AM 44.1 °F 37.4 °F 32.0 °F 63% 29.26 in 10.0 mi South 13.8 mph 27.6 mph 0.00 in Rain Light Rain
7:56 AM 43.0 °F 36.4 °F 34.0 °F 71% 29.23 in 10.0 mi SW 12.7 mph 20.7 mph 0.00 in Rain Light Rain
8:08 AM 42.8 °F 34.0 °F 32.0 °F 66% 29.21 in 10.0 mi South 20.7 mph 26.5 mph 0.00 in Rain Light Rain
8:56 AM 44.1 °F 35.7 °F 30.9 °F 60% 29.20 in 10.0 mi South 20.7 mph 39.1 mph 0.01 in Rain Light Rain
9:56 AM 44.1 °F 33.8 °F 32.0 °F 63% 29.16 in 10.0 mi South 31.1 mph 43.7 mph 0.01 in Rain Light Rain
11:14 AM 42.8 °F 35.1 °F 35.6 °F 76% 29.11 in 9.0 mi South 16.1 mph 24.2 mph 0.00 in Rain Light Rain
11:56 AM 44.1 °F 38.1 °F 34.0 °F 68% 29.11 in 10.0 mi South 11.5 mph 26.5 mph 0.02 in Rain Light Rain
12:56 PM 44.1 °F 40.1 °F 35.1 °F 71% 29.09 in 10.0 mi Variable 6.9 mph 21.9 mph 0.00 in Rain Light Rain
1:56 PM 45.0 °F 40.6 °F 35.1 °F 68% 29.08 in 10.0 mi SSW 8.1 mph - 0.01 in Rain Light Rain
2:19 PM 44.6 °F 36.6 °F 35.6 °F 71% 29.07 in 10.0 mi SSW 19.6 mph 28.8 mph 0.00 in Rain Light Rain
2:56 PM 44.1 °F 35.7 °F 36.0 °F 73% 29.10 in 6.0 mi SSW 20.7 mph 29.9 mph 0.01 in Rain Light Rain
3:56 PM 43.0 °F 36.0 °F 36.0 °F 76% 29.11 in 9.0 mi SW 13.8 mph 21.9 mph 0.01 in Rain Light Rain
4:56 PM 43.0 °F 40.3 °F 36.0 °F 76% 29.12 in 9.0 mi SSE 4.6 mph - 0.02 in Rain Light Rain
5:54 PM 44.6 °F 38.1 °F 33.8 °F 66% 29.12 in 9.0 mi SW 13.8 mph 21.9 mph 0.00 in Rain Light Rain
5:56 PM 44.1 °F 37.7 °F 35.1 °F 71% 29.14 in 9.0 mi SSW 12.7 mph 21.9 mph 0.00 in Rain Light Rain
6:56 PM 45.0 °F 36.9 °F 35.1 °F 68% 29.16 in 10.0 mi SW 20.7 mph 29.9 mph 0.00 in Rain Light Rain
7:29 PM 44.6 °F 35.5 °F 33.8 °F 66% 29.15 in 10.0 mi SW 25.3 mph 40.3 mph 0.00 in Rain Light Rain
7:56 PM 44.1 °F 35.9 °F 33.1 °F 65% 29.19 in 10.0 mi SW 19.6 mph 42.6 mph 0.00 in Rain Light Rain
8:09 PM 44.6 °F 37.2 °F 32.0 °F 61% 29.18 in 10.0 mi SW 17.3 mph 34.5 mph 0.00 in Rain Light Rain
8:56 PM 43.0 °F 33.5 °F 33.1 °F 68% 29.21 in 7.0 mi SW 24.2 mph 42.6 mph 0.01 in Rain Light Rain
9:25 PM 44.6 °F 35.1 °F 33.8 °F 66% 29.20 in 10.0 mi SW 27.6 mph 46.0 mph 0.00 in Rain Light Rain
9:39 PM 44.6 °F 35.3 °F 33.8 °F 66% 29.20 in 10.0 mi SSW 26.5 mph 48.3 mph 0.00 in Rain Light Rain
9:56 PM 44.1 °F 35.2 °F 33.1 °F 65% 29.23 in 10.0 mi SW 23.0 mph 38.0 mph 0.00 in   Overcast
10:56 PM 43.0 °F 33.5 °F 33.1 °F 68% 29.24 in 7.0 mi SSW 24.2 mph 44.9 mph 0.00 in Rain Light Rain
11:42 PM 42.8 °F 32.5 °F 33.8 °F 70% 29.23 in 10.0 mi SSW 28.8 mph 42.6 mph 0.01 in Rain Light Rain
11:56 PM 43.0 °F 33.1 °F 32.0 °F 65% 29.24 in 10.0 mi SSW 26.5 mph 42.6 mph 0.01 in Rain Light Rain